Home   Weather   Fort Wayne   Past weeks

Flag for USA Past Weather in Fort Wayne, Indiana, USA — Yesterday and Last 2 Weeks

Now
61 °F

Overcast.


Feels Like: 61 °F
Forecast: 51 / 67 °F
Wind: 10 mph from Southwest

Location: Fort Wayne International Airport

Current Time: Apr 27, 2017 at 7:08:26 am

Latest Report: Apr 27, 2017 at 5:54 am


Visibility: 10 mi

Pressure: 29.47 "Hg

Humidity: 81%

Dew Point: 55 °F

Location of Fort WayneLocation

Past Weather in Fort Wayne — Graph

°F

Fort Wayne Temperature Yesterday

Maximum temperature yesterday: 85 °F (at 3:54 pm)
Minimum temperature yesterday: 58 °F (at 4:54 am)
Average temperature yesterday: 69 °F

High & Low Weather Summary for the Past Weeks

 TemperatureHumidityPressure
High85 °F (Apr 26, 3:54 pm)94% (Apr 19, 8:54 pm)30.40 "Hg (Apr 19, 8:54 pm)
Low37 °F (Apr 12, 5:54 am)24% (Apr 23, 3:54 pm)29.44 "Hg (Apr 27, 3:54 am)
Average60 °F62%30.02 "Hg
* Reported Apr 12 5:54 am — Apr 27 5:54 am, Fort Wayne, Weather by CustomWeather, © 2017

Note: Actual official high and low records may vary slightly from our data, if they occured in-between our weather recording intervals... More about our weather records

Advertising

Fort Wayne Weather History for the Previous 24 Hours

Scroll right to see more
 ConditionsComfort  
Time TempWeatherWind HumidityBarometerVisibility
5:54 am
Thu, Apr 27
61 °FOvercast.10 mph81%29.47 "Hg10 mi
4:54 am63 °FOvercast.15 mph78%29.47 "Hg10 mi
4:26 am66 °FLight rain. Overcast.29 mph68%29.47 "Hg10 mi
3:54 am68 °FOvercast.16 mph65%29.44 "Hg10 mi
2:54 am68 °FOvercast.16 mph63%29.45 "Hg10 mi
1:54 am64 °FOvercast.10 mph70%29.48 "Hg10 mi
12:54 am63 °FPartly cloudy.9 mph78%29.49 "Hg10 mi
11:54 pm
Wed, Apr 26
62 °FPassing clouds.3 mph86%29.49 "Hg10 mi
10:54 pm62 °FPassing clouds.8 mph90%29.50 "Hg10 mi
9:54 pm62 °FMostly cloudy.7 mph86%29.51 "Hg10 mi
9:39 pm62 °FMostly cloudy.3 mph86%29.53 "Hg10 mi
8:54 pm71 °FThunderstorms. Overcast.6 mph71%29.52 "Hg10 mi
7:54 pm77 °FThunderstorms. Broken clouds.7 mph56%29.48 "Hg10 mi
6:54 pm80 °FPartly sunny.14 mph49%29.50 "Hg10 mi
5:54 pm81 °FScattered clouds.16 mph44%29.49 "Hg10 mi
4:54 pm84 °FScattered clouds.22 mph40%29.49 "Hg10 mi
3:54 pm85 °FScattered clouds.24 mph40%29.51 "Hg10 mi
2:54 pm82 °FPassing clouds.25 mph46%29.51 "Hg10 mi
1:54 pm80 °FPassing clouds.26 mph51%29.52 "Hg10 mi
12:54 pm80 °FScattered clouds.23 mph51%29.54 "Hg10 mi
11:54 am78 °FScattered clouds.17 mph50%29.56 "Hg10 mi
10:54 am75 °FPartly sunny.17 mph55%29.59 "Hg10 mi
9:54 am67 °FPartly sunny.16 mph68%29.60 "Hg10 mi
8:54 am65 °FPartly sunny.14 mph76%29.62 "Hg10 mi
7:54 am60 °FPartly sunny.10 mph83%29.61 "Hg10 mi
Weather by CustomWeather, © 2017

See weather overviewHow to use our weather pages